Weather History for Lawrence, MA

Change the Weather History Date:

Saturday, May 18, 2013

  Actual Average Record
Temperature  
Mean Temperature 58 °F -  
Max Temperature 73 °F 70 °F 92 °F (1977)
Min Temperature 44 °F 48 °F 32 °F (2002)
Degree Days  
Heating Degree Days 8    
Growing Degree Days 8 (Base 50)    
Moisture  
Dew Point 42 °F    
Average Humidity 60    
Maximum Humidity 90    
Minimum Humidity 27    
Precipitation  
Precipitation 0.00 in - - ()
Sea Level Pressure  
Sea Level Pressure 30.28 in    
Wind  
Wind Speed 2 mph (NE)    
Max Wind Speed 10 mph    
Max Gust Speed 18 mph    
Visibility 10 miles    
Events      
Averages and records for this station are not official NWS values.
T = Trace of Precipitation, MM = Missing Value Source: NWS Daily Summary

Daily Weather History Graph

Daily Weather History Graph

Search for Another Location

Airport:

Trip Planner

Search our weather history database for the weather conditions in past years. The results will help you decide how hot, cold, wet, or windy it might be!

Date:

Astronomy

May. 18, 2013 Rise Set
Actual Time 5:18 AM EDT 8:03 PM EDT
Civil Twilight 4:46 AM EDT 8:36 PM EDT
Nautical Twilight 4:04 AM EDT 9:17 PM EDT
Astronomical Twilight 3:17 AM EDT 10:05 PM EDT
Moon 12:54 PM EDT 1:19 AM EDT
Length of Visible Light 15h 50m
Length of Day
14h 44m
First Quarter, 55% of the Moon is Illuminated
May 18
First Quarter
May 25
Full
May 31
Last Quarter
Jun 8
New
Jun 16
First Quarter

Hourly Weather History & Observations

Time (EDT) Temp. Dew Point Humidity Pressure Visibility Wind Dir Wind Speed Gust Speed Precip Events Conditions
12:54 AM 50.0 °F 43.0 °F 77% 30.24 in 10.0 mi Calm Calm - N/A   Overcast
1:54 AM 48.9 °F 42.1 °F 77% 30.24 in 10.0 mi Calm Calm - N/A   Mostly Cloudy
2:54 AM 46.9 °F 42.1 °F 83% 30.24 in 10.0 mi Calm Calm - N/A   Clear
3:54 AM 46.0 °F 41.0 °F 83% 30.25 in 10.0 mi Calm Calm - N/A   Clear
4:54 AM 44.1 °F 41.0 °F 89% 30.26 in 10.0 mi Calm Calm - N/A   Clear
5:54 AM 45.0 °F 42.1 °F 90% 30.28 in 10.0 mi Calm Calm - N/A   Clear
6:54 AM 48.9 °F 43.0 °F 80% 30.30 in 10.0 mi Calm Calm - N/A   Clear
7:54 AM 55.0 °F 43.0 °F 64% 30.32 in 10.0 mi Calm Calm - N/A   Clear
8:54 AM 61.0 °F 41.0 °F 48% 30.33 in 10.0 mi Calm Calm - N/A   Clear
9:54 AM 64.9 °F 39.9 °F 40% 30.32 in 10.0 mi Calm Calm - N/A   Clear
10:54 AM 68.0 °F 37.9 °F 33% 30.31 in 10.0 mi Calm Calm - N/A   Clear
11:54 AM 71.1 °F 39.0 °F 31% 30.30 in 10.0 mi West 6.9 mph - N/A   Scattered Clouds
12:54 PM 70.0 °F 34.0 °F 27% 30.28 in 10.0 mi North 5.8 mph - N/A   Overcast
1:54 PM 71.1 °F 35.1 °F 27% 30.27 in 10.0 mi Variable 4.6 mph - N/A   Overcast
2:54 PM 69.8 °F 37.4 °F 31% 30.26 in 10.0 mi SSE 6.9 mph - N/A   Mostly Cloudy
3:54 PM 70.0 °F 39.0 °F 32% 30.26 in 10.0 mi Variable 4.6 mph - N/A   Partly Cloudy
4:54 PM 66.0 °F 39.9 °F 38% 30.27 in 10.0 mi SE 10.4 mph 18.4 mph N/A   Clear
5:54 PM 66.2 °F 41.0 °F 40% 30.27 in 10.0 mi ESE 10.4 mph - N/A   Scattered Clouds
6:54 PM 63.0 °F 44.1 °F 50% 30.27 in 10.0 mi ESE 8.1 mph - N/A   Mostly Cloudy
7:54 PM 61.0 °F 46.0 °F 58% 30.27 in 10.0 mi East 6.9 mph - N/A   Overcast
8:54 PM 59.0 °F 46.0 °F 62% 30.28 in 10.0 mi NE 4.6 mph - 0.00 in   Overcast
9:54 PM 53.1 °F 48.0 °F 83% 30.29 in 10.0 mi NNE 5.8 mph - 0.00 in   Mostly Cloudy
10:54 PM 53.1 °F 48.9 °F 86% 30.30 in 10.0 mi North 3.5 mph - N/A   Mostly Cloudy
11:37 PM 51.8 °F 48.2 °F 88% 30.30 in 10.0 mi North 3.5 mph - N/A   Partly Cloudy
11:54 PM 51.8 °F 48.2 °F 88% 30.30 in 10.0 mi North 3.5 mph - N/A   Partly Cloudy